User: anonymous   Login
Location: Unspecified
(0.0000°N, 0.0000°E)
Time: 07:58:59
(UTC+00:00)
Language:

AEHF 1 (USA 214) - Orbit

View from above orbital plane
View from above orbital plane
View from above satellite
View from above satellite

Ground track
Ground track

The orbit data is extracted from the following two-line orbital elements,

1 36868U 10039A   16345.56941489 0.00000000  00000-0  00000-0 0    02
2 36868   0.5922 216.9901 0003453 225.6108 134.3709  1.00270000    05
Epoch (UTC): 10 December 2016 13:39:57
Eccentricity: 0.0003453
inclination: 0.5922°
perigee height: 35772 km
apogee height: 35801 km
right ascension of ascending node: 216.9901°
argument of perigee: 225.6108°
revolutions per day: 1.00270000
mean anomaly at epoch: 134.3709°
orbit number at epoch: 0

The dashed part of the orbit path shows where the satellite is in the earth's shadow,  

DLR